Historique des stations

Station météo de Salbris

Altitude de la station : 113 m







Données météorologiques pour le 17/05/2022
Date
Heure
Températures Humidité Point de rosée Vitesse
du vent
Direction Rafales Windchill Pression Pluviométrie
Cumul
Date
Heure
Températures Humidité Point de rosée Vitesse
du vent
Direction Rafales Windchill Pression Pluviométrie
Cumul
17/05/2022 06:1514.3 °C93 %13.3 °C---14.4 1020 hPa0.2 mm
17/05/2022 06:1414.3 °C93 %13.3 °C-N16 km/h14.4 1020 hPa0.2 mm
17/05/2022 06:0014.6 °C93 %13.3 °C---14.4 1020 hPa0.2 mm
17/05/2022 05:5914.6 °C93 %13.3 °C-N16 km/h14.4 1020 hPa0.2 mm
17/05/2022 05:4514.9 °C93 %13.9 °C-N2 km/h15.0 1020 hPa0.2 mm
17/05/2022 05:4415.0 °C93 %13.9 °C-N16 km/h15.0 1020 hPa0.2 mm
17/05/2022 05:3015.3 °C93 %14.4 °C-N2 km/h15.6 1020 hPa0.2 mm
17/05/2022 05:2915.3 °C93 %14.4 °C-N16 km/h15.6 1020 hPa0.2 mm
17/05/2022 05:1515.6 °C93 %14.4 °C-N2 km/h15.6 1020 hPa0.2 mm
17/05/2022 05:1415.6 °C93 %14.4 °C-N16 km/h15.6 1020 hPa0.2 mm
17/05/2022 05:0015.8 °C93 %14.4 °C-N3 km/h15.6 1020 hPa0.2 mm
17/05/2022 04:5915.8 °C93 %14.4 °C-N16 km/h15.6 1020 hPa0.2 mm
17/05/2022 04:4515.8 °C94 %15.0 °C-N3 km/h16.1 1020 hPa0.2 mm
17/05/2022 04:4415.8 °C94 %15.0 °C-N16 km/h16.1 1020 hPa0.2 mm
17/05/2022 04:3015.8 °C93 %15.0 °C---16.1 1020 hPa0.2 mm
17/05/2022 04:2915.8 °C93 %15.0 °C-N16 km/h16.1 1020 hPa0.2 mm
17/05/2022 04:1515.9 °C93 %15.0 °C-N2 km/h16.1 1020 hPa0.2 mm
17/05/2022 04:1416.0 °C93 %15.0 °C-N16 km/h16.1 1020 hPa0.2 mm
17/05/2022 04:0016.1 °C93 %15.0 °C---16.1 1020 hPa0.2 mm
17/05/2022 03:5916.1 °C93 %15.0 °C-N16 km/h16.1 1020 hPa0.2 mm
17/05/2022 03:4516.1 °C93 %15.0 °C-N3 km/h16.1 1020 hPa0.2 mm
17/05/2022 03:4416.1 °C93 %15.0 °C-N16 km/h16.1 1020 hPa0.2 mm
17/05/2022 03:3016.0 °C93 %15.0 °C---16.1 1020 hPa0.2 mm
17/05/2022 03:2915.9 °C93 %15.0 °C-N16 km/h16.1 1021 hPa0.2 mm
17/05/2022 03:1515.9 °C92 %14.4 °C---16.1 1021 hPa0.2 mm
17/05/2022 03:1415.9 °C92 %14.4 °C-N16 km/h16.1 1021 hPa0.2 mm
17/05/2022 03:0015.9 °C92 %14.4 °C-N16 km/h16.1 1021 hPa0.2 mm
17/05/2022 02:4515.9 °C91 %14.4 °C-N5 km/h16.1 1021 hPa0.2 mm
17/05/2022 02:4415.8 °C91 %14.4 °C-N16 km/h16.1 1021 hPa0.2 mm
17/05/2022 02:3015.6 °C92 %14.4 °C13 km/hN13 km/h14.4 1021 hPa-
17/05/2022 02:2915.6 °C92 %14.4 °C13 km/hN13 km/h14.4 1021 hPa-
17/05/2022 02:1515.3 °C92 %13.9 °C---15.6 1021 hPa-
17/05/2022 02:0015.1 °C93 %13.9 °C---15.0 1021 hPa-
17/05/2022 01:5915.1 °C93 %13.9 °C---15.0 1021 hPa-
17/05/2022 01:4514.8 °C92 %13.3 °C---15.0 1021 hPa-
17/05/2022 01:4414.8 °C92 %13.3 °C---15.0 1020 hPa-
17/05/2022 01:3014.7 °C91 %13.3 °C---15.0 1021 hPa-
17/05/2022 01:2914.7 °C91 %13.3 °C---15.0 1021 hPa-
17/05/2022 01:1514.9 °C90 %13.3 °C---15.0 1021 hPa-
17/05/2022 01:0015.1 °C90 %13.3 °C---15.0 1021 hPa-
17/05/2022 00:4515.2 °C89 %13.3 °C---15.0 1021 hPa-
17/05/2022 00:3015.4 °C89 %13.9 °C---15.6 1021 hPa-
17/05/2022 00:1515.6 °C87 %13.3 °C---15.6 1021 hPa-
17/05/2022 00:0015.8 °C86 %13.3 °C---16.1 1021 hPa-


Minima :

Température : 14.3 °C
Humidité : 86 %
Point de rosée : 13.3 °C
Vent moyen : 13 km/h
Windchill : 14.4
Pression atm. : 1020 hPa
Maxima :

Température : 16.1 °C
Humidité : 94 %
Point de rosée : 15.0 °C
Vent moyen : 13 km/h
Windchill : 16.1
Pression atm. : 1021 hPa
Rafales max : 16 km/h
Cumul de pluie sur 24H : 0.2 mm

Salbris est une commune du département Loir-et-Cher (41).
La station météorologique du réseau de l'association la plus proche de Salbris est celle de Orçay



Icône Facebook Association Météo Centre Icône Twitter Association Météo Centre Icône Chaîne Youtube Association Météo Centre Icône contact Association Météo Centre Icône Insta Association Météo Centre